Date,TemperatureHighF,TemperatureAvgF,TemperatureLowF,DewpointHighF,DewpointAvgF,DewpointLowF,HumidityHigh,HumidityAvg,HumidityLow,PressureMaxIn,PressureMinIn,WindSpeedMaxMPH,WindSpeedAvgMPH,GustSpeedMaxMPH,PrecipitationSumIn
2013-1-1,35.2,28.9,15.6,29.8,18.6,4.1,86,66,53,29.97,29.71,15,2,16,0.02
2013-1-2,26.6,15.9,5.1,18.5,5.9,-8.0,82,65,49,30.15,29.91,9,2,17,0.00
2013-1-3,23.1,11.1,-1.8,6.6,-1.4,-9.1,78,58,33,30.25,29.98,9,1,10,2.06
2013-1-4,36.3,24.2,7.3,24.5,16.9,3.2,90,74,60,30.04,29.77,9,1,15,1.72
2013-1-5,39.5,30.8,17.8,25.5,20.6,14.5,88,67,43,30.30,29.81,13,2,17,0.09
2013-1-6,40.4,28.4,18.2,30.5,23.7,15.0,93,83,64,30.28,29.93,13,1,14,0.10
2013-1-7,35.1,26.3,15.0,28.6,19.5,11.4,96,77,45,30.43,29.96,15,1,16,0.01
2013-1-8,43.5,26.1,12.0,30.9,20.9,9.6,93,82,58,30.38,30.26,14,1,14,0.12
2013-1-9,42.2,30.9,17.2,35.7,26.5,15.3,96,84,64,30.43,29.99,9,1,11,0.07
2013-1-10,45.1,39.7,29.1,32.6,27.9,24.3,83,63,54,30.57,30.02,16,3,18,0.01
2013-1-11,38.2,31.0,21.8,33.5,27.0,19.8,100,86,69,30.56,30.23,6,0,6,0.16
2013-1-12,40.1,35.9,33.0,40.0,35.9,32.8,100,100,99,30.25,30.13,2,0,3,0.03
2013-1-13,46.4,40.9,34.5,46.4,40.9,34.4,100,100,100,30.17,29.99,6,0,7,0.00
2013-1-14,58.8,45.8,38.2,52.5,40.2,28.0,100,83,54,30.31,29.86,13,1,16,0.00
2013-1-15,40.6,34.4,27.9,28.7,26.3,24.6,90,73,56,30.34,30.23,8,0,11,0.00
2013-1-16,31.8,30.3,28.1,31.8,29.4,25.3,100,96,88,30.27,29.79,3,0,3,0.00
2013-1-17,40.3,30.2,21.0,36.3,24.7,11.0,100,81,50,30.12,29.80,11,0,11,0.28
2013-1-18,27.0,18.9,13.7,12.0,1.4,-4.4,65,47,31,30.45,30.06,13,2,18,0.00
2013-1-19,45.3,34.2,18.1,31.4,21.4,6.4,77,59,49,30.38,29.86,27,4,27,0.06
2013-1-20,51.7,38.5,26.6,32.7,24.7,11.0,76,58,37,29.95,29.52,18,5,38,0.00
2013-1-21,27.0,22.8,16.4,19.4,9.7,2.9,91,59,43,30.09,29.80,12,1,16,0.00
2013-1-22,23.2,18.1,9.2,19.4,7.7,-0.9,91,65,41,30.09,29.76,12,2,16,0.40
2013-1-23,13.5,8.0,-0.7,0.3,-8.7,-14.1,67,47,28,30.16,30.06,10,1,21,1.94
2013-1-24,17.5,8.4,-2.3,-7.2,-10.9,-13.4,69,42,27,30.25,30.06,16,2,17,0.56
2013-1-25,22.2,14.5,7.0,7.5,-7.3,-21.7,69,37,27,30.44,30.07,12,1,227,0.87
2013-1-26,22.5,15.5,7.4,9.2,0.5,-7.6,84,54,29,30.26,30.02,12,2,14,3.35
2013-1-27,28.9,18.8,10.2,3.3,0.7,-3.6,64,46,29,30.50,30.24,9,1,15,1.56
2013-1-28,29.0,21.8,13.9,22.5,12.9,2.8,93,70,43,30.48,30.04,8,0,8,0.00
2013-1-29,33.4,28.1,20.9,31.0,25.5,18.4,97,90,82,30.21,30.05,6,0,6,0.10
2013-1-30,57.0,29.8,31.8,56.7,41.7,17.3,100,81,50,30.16,29.42,18,2,20,0.18
2013-1-31,59.9,45.3,28.5,59.3,37.3,15.7,100,75,46,29.58,28.94,33,7,33,0.27
2013-2-1,32.0,26.5,20.3,19.3,10.6,4.4,71,51,38,30.09,29.58,20,4,22,0.63
2013-2-2,29.1,22.9,12.5,13.1,6.8,2.3,71,50,39,30.26,30.05,10,2,13,0.00
2013-2-3,26.1,23.2,17.2,21.4,18.6,13.1,91,82,60,30.07,29.74,8,1,9,0.00
2013-2-4,29.0,22.3,16.1,19.9,9.8,3.8,91,61,38,29.94,29.73,22,3,22,0.00
2013-2-5,30.5,23.4,17.2,19.3,11.0,4.2,82,59,46,30.04,29.93,8,1,8,0.00
2013-2-6,37.1,28.1,21.1,27.5,17.8,5.5,91,67,42,30.31,29.93,13,2,15,0.02
2013-2-7,27.4,21.9,13.9,5.7,1.9,-1.9,64,42,32,30.55,30.31,12,2,14,0.00
2013-2-8,23.6,20.1,16.7,17.4,14.2,0.5,92,79,37,30.54,29.72,29,4,32,0.00
2013-2-9,21.7,17.7,14.5,18.2,10.8,0.9,94,75,54,30.25,29.66,24,5,24,0.00
2013-2-10,39.2,22.2,8.4,16.7,4.6,-2.5,76,49,25,30.41,30.23,11,1,13,0.08
2013-2-11,31.5,24.1,11.2,31.4,21.1,5.1,100,88,68,30.36,29.61,4,0,5,0.00
2013-2-12,43.0,35.9,29.0,34.5,30.8,27.8,100,83,64,29.91,29.58,12,2,17,0.23
2013-2-13,41.8,32.9,23.0,28.6,25.3,20.5,94,74,55,29.92,29.73,6,1,9,0.01
2013-2-14,44.6,32.3,22.3,29.4,24.0,20.1,93,73,47,30.02,29.72,9,1,12,0.06
2013-2-15,52.7,34.9,19.4,36.0,27.8,17.5,100,78,48,30.06,29.82,14,2,18,0.57
2013-2-16,39.0,32.9,26.3,32.0,26.0,15.2,98,77,53,30.02,29.73,12,1,12,0.78
2013-2-17,27.4,20.7,15.3,17.7,7.0,-0.5,85,56,42,29.79,29.36,21,5,28,0.00
2013-2-18,30.1,21.2,13.2,4.5,0.4,-1.9,53,41,25,30.18,29.64,20,4,22,2.31
2013-2-19,45.6,33.5,17.1,40.9,22.6,2.8,100,66,42,30.26,29.58,10,1,11,1.26
2013-2-20,35.7,31.1,25.3,35.6,21.3,13.1,100,68,47,29.81,29.53,20,4,27,3.63
2013-2-21,31.7,25.8,22.1,16.0,13.5,9.7,70,59,48,30.26,29.73,13,3,22,0.38
2013-2-22,41.2,30.4,17.6,25.7,20.4,14.1,89,67,46,30.45,30.21,10,1,12,2.40
2013-2-23,37.8,31.5,-6.0,32.8,28.6,-6.0,100,83,50,30.42,29.93,8,1,9,2.25
2013-2-24,33.4,32.4,30.6,33.3,32.4,30.6,100,100,100,30.03,29.73,10,1,12,1.75
2013-2-25,36.9,32.7,28.2,35.5,32.2,28.2,100,98,90,30.28,29.92,6,0,6,1.89
2013-2-26,41.0,31.5,28.5,37.2,31.1,28.5,100,84,50,30.38,30.19,6,1,11,1.73
2013-2-27,40.1,35.9,33.2,40.1,35.3,30.2,100,98,84,30.20,29.58,24,3,24,0.89
2013-2-28,43.9,36.8,32.3,38.4,34.8,32.3,100,93,77,29.71,29.54,9,1,26,0.01
2013-3-1,39.9,36.2,28.2,35.9,30.7,28.0,100,81,68,29.76,29.53,13,2,14,0.00
2013-3-2,41.3,35.7,27.8,31.4,27.9,24.5,90,73,64,29.78,29.62,10,2,12,0.00
2013-3-3,39.8,27.7,30.3,32.2,28.5,-30.5,88,72,50,29.73,29.53,9,1,9,0.01
2013-3-4,38.4,32.9,28.8,27.8,24.7,21.5,81,72,59,29.83,29.58,17,2,19,1.28
2013-3-5,43.5,35.3,29.5,33.9,28.1,13.5,92,73,50,30.10,29.75,9,1,11,0.00
2013-3-6,37.9,22.6,33.2,35.7,33.4,16.7,100,81,50,30.20,30.04,19,1,27,0.82
2013-3-7,33.7,31.3,29.6,32.0,30.4,27.0,100,57,1,30.14,30.03,6,3,24,0.02
2013-3-8,41.1,31.4,28.5,34.9,31.5,26.0,98,37,1,30.31,30.00,5,0,14,3.10
2013-3-9,51.5,26.4,25.2,32.0,28.3,11.3,97,61,33,30.48,30.12,11,1,12,0.08
2013-3-10,46.1,25.8,19.4,34.9,28.4,18.6,100,79,50,30.47,30.29,8,0,9,0.00
2013-3-11,52.0,41.0,30.2,39.3,35.3,30.0,100,82,57,30.34,30.14,10,2,13,0.00
2013-3-12,54.9,45.4,36.9,52.6,46.2,32.0,100,96,50,30.19,29.65,13,1,14,0.29
2013-3-13,49.9,27.1,29.0,35.8,30.2,23.0,82,56,39,29.83,29.67,13,1,14,0.01
2013-3-14,35.9,29.6,21.4,25.6,17.2,8.0,88,61,47,29.91,29.65,16,3,18,0.00
2013-3-15,40.8,27.1,17.7,32.0,15.2,3.6,83,55,31,29.88,29.60,15,3,22,0.00
2013-3-16,37.2,15.0,25.4,32.0,25.5,-11.1,78,56,39,29.93,29.67,10,0,11,0.00
2013-3-17,33.7,13.3,18.1,32.0,22.3,8.3,92,60,34,30.24,29.87,9,0,10,0.00
2013-3-18,119.3,30.5,13.3,99.9,11.3,3.2,96,47,1,30.48,30.24,9,1,12,0.00
2013-3-19,33.1,30.1,25.1,33.0,30.1,25.0,100,100,96,30.26,29.66,12,2,18,0.07
2013-3-20,36.9,28.8,22.8,27.9,24.5,21.5,100,85,59,29.82,29.69,18,2,18,0.43
2013-3-21,38.6,27.3,16.6,32.0,21.9,11.3,100,80,50,29.82,29.57,8,1,8,0.20
2013-3-22,40.3,31.8,23.3,25.8,22.6,19.2,99,70,49,29.75,29.59,13,1,14,0.89
2013-3-23,41.6,33.7,24.4,25.2,22.4,19.3,86,64,47,29.79,29.63,20,3,23,0.00
2013-3-24,38.3,34.2,31.6,27.9,26.0,21.9,79,72,52,29.83,29.66,17,4,17,0.00
2013-3-25,43.6,36.1,28.8,34.6,29.7,24.8,85,78,69,29.74,29.53,15,3,17,0.97
2013-3-26,49.1,39.2,30.5,31.8,27.1,21.0,83,64,34,29.79,29.54,11,2,12,0.00
2013-3-27,52.3,39.9,24.1,33.8,27.0,22.3,96,63,36,29.90,29.74,14,2,17,0.00
2013-3-28,49.2,41.7,34.3,35.9,33.9,31.1,99,75,52,30.09,29.89,11,1,12,0.92
2013-3-29,56.1,42.5,28.4,37.8,33.4,28.2,100,73,42,30.07,29.97,13,1,14,0.00
2013-3-30,55.3,43.2,30.5,34.5,26.6,18.6,99,58,27,30.12,30.01,15,1,15,0.00
2013-3-31,60.5,43.3,23.9,40.6,28.6,21.7,94,61,28,30.14,29.76,19,3,24,0.04
2013-4-1,60.9,45.3,32.9,46.6,36.8,14.7,100,75,41,29.80,29.49,18,3,22,0.31
2013-4-2,39.3,33.3,26.8,18.4,14.3,10.4,59,46,33,29.95,29.77,22,5,26,0.00
2013-4-3,45.2,36.7,27.5,17.8,14.5,11.1,60,41,27,30.17,29.92,17,4,21,0.00
2013-4-4,55.9,42.2,26.0,25.3,19.5,14.8,71,43,25,30.31,30.01,16,3,19,0.00
2013-4-5,60.0,46.1,36.3,32.4,28.0,21.9,79,52,24,30.03,29.61,15,3,19,1.25
2013-4-6,45.0,36.0,27.1,24.5,13.4,5.6,66,42,21,30.36,29.89,20,3,22,0.00
2013-4-7,57.9,39.7,22.9,39.8,26.8,16.9,84,63,28,30.36,29.99,19,3,33,0.00
2013-4-8,64.1,50.5,36.0,45.6,39.5,36.0,100,70,38,30.11,29.95,13,1,15,0.00
2013-4-9,67.9,54.1,44.3,52.6,45.3,32.0,100,73,47,30.10,29.84,15,1,15,0.03
2013-4-10,60.5,51.1,44.8,51.9,47.8,43.0,100,89,70,30.04,29.84,8,0,9,0.63
2013-4-11,51.4,45.7,39.4,48.8,38.6,27.7,100,78,47,30.16,29.84,11,2,12,0.07
2013-4-12,40.7,36.1,34.0,36.0,33.7,28.9,100,91,63,30.22,29.83,16,3,18,0.45
2013-4-13,52.4,42.2,34.3,42.7,37.9,34.3,100,86,60,29.96,29.78,9,1,10,0.08
2013-4-14,52.3,44.0,32.1,41.8,35.0,28.5,100,73,49,30.23,29.91,15,2,20,0.00
2013-4-15,60.2,43.4,27.2,39.2,34.2,26.0,98,73,43,30.44,30.23,13,2,15,0.00
2013-4-16,68.7,51.7,34.9,53.6,44.1,33.6,97,77,49,30.43,30.06,16,4,23,0.49
2013-4-17,64.5,56.3,43.5,54.5,39.0,30.6,90,55,32,30.35,30.05,15,3,17,0.00
2013-4-18,65.2,50.5,33.2,44.2,35.3,30.1,91,59,36,30.45,30.15,18,3,19,0.00
2013-4-19,76.7,63.5,51.7,64.6,58.2,44.4,100,84,60,30.16,29.61,26,5,28,0.00
2013-4-20,67.4,52.3,41.7,64.9,41.9,23.5,100,71,43,30.24,29.60,20,3,20,0.40
2013-4-21,51.3,40.7,29.4,29.1,22.8,17.2,82,51,28,30.71,30.23,11,2,18,0.00
2013-4-22,51.4,35.6,28.4,34.2,30.3,26.3,96,70,40,30.81,30.61,17,2,17,0.00
2013-4-23,40.6,38.1,33.3,40.5,36.5,30.2,100,94,82,30.62,30.15,14,2,15,0.01
2013-4-24,76.9,57.2,40.3,55.1,46.3,40.3,100,72,31,30.15,29.76,15,3,17,0.00
2013-4-25,62.9,53.6,38.5,53.2,38.3,28.8,99,60,31,30.29,29.81,21,3,21,0.05
2013-4-26,63.1,47.9,30.2,39.5,35.2,28.4,96,65,35,30.45,30.28,13,2,15,0.00
2013-4-27,65.9,39.5,33.3,43.6,36.6,32.0,100,65,39,30.45,30.26,7,1,8,0.00
2013-4-28,72.4,51.8,35.4,45.8,38.7,32.0,97,61,31,30.37,30.19,12,2,14,0.00
2013-4-29,72.4,44.4,41.9,50.4,39.5,24.3,88,53,36,30.32,30.17,11,1,15,0.00
2013-4-30,72.2,33.2,45.1,44.4,32.4,-22.2,62,40,25,30.52,30.23,14,1,14,0.00
2013-5-1,74.8,38.3,33.7,42.0,34.6,23.5,92,53,27,30.51,30.34,10,1,12,0.85
2013-5-2,80.9,44.0,37.6,49.2,39.8,26.5,94,56,27,30.53,30.34,17,1,21,0.00
2013-5-3,62.1,50.5,39.2,47.1,42.6,37.6,95,76,55,30.61,30.39,13,2,13,0.00
2013-5-4,63.6,50.4,36.6,50.7,40.4,29.6,100,72,32,30.43,30.29,16,2,16,0.00
2013-5-5,66.8,48.6,30.3,45.9,38.8,29.0,100,72,44,30.36,30.25,12,2,12,0.00
2013-5-6,73.1,45.5,32.1,51.9,40.6,31.3,100,70,34,30.33,30.11,8,1,12,0.00
2013-5-7,81.7,36.1,54.3,59.9,43.2,32.0,90,52,37,30.30,30.07,8,1,11,0.00
2013-5-8,75.6,43.6,60.0,66.4,51.2,32.0,100,73,50,30.25,30.05,13,2,16,0.44
2013-5-9,67.7,55.0,56.8,64.8,57.2,32.0,100,94,50,30.08,29.84,7,0,255,0.27
2013-5-10,81.5,41.8,53.3,70.2,48.0,32.0,100,64,46,30.09,29.85,10,1,11,0.00
2013-5-11,69.5,48.7,59.7,65.2,53.7,16.1,100,79,50,29.94,29.67,12,2,20,0.09
2013-5-12,71.5,32.2,42.5,58.9,39.8,-29.3,96,57,45,29.85,29.53,12,1,16,0.04
2013-5-13,59.1,37.8,38.1,39.4,34.2,16.5,88,57,42,30.06,29.78,11,1,15,0.00
2013-5-14,58.0,42.2,33.6,39.9,34.3,28.5,98,64,39,30.18,29.97,9,1,12,0.00
2013-5-15,69.0,40.1,30.6,53.2,38.5,29.9,100,70,37,30.08,29.65,18,1,18,0.00
2013-5-16,79.8,50.2,50.8,53.8,39.7,32.0,100,40,27,29.83,29.59,14,2,17,0.00
2013-5-17,67.4,57.5,46.1,46.7,43.0,38.0,87,61,36,30.28,29.83,14,2,18,0.00
2013-5-18,73.3,26.6,39.9,53.4,37.9,-23.2,100,56,33,30.45,30.17,10,0,11,1.05
2013-5-19,72.4,39.9,45.4,57.9,45.4,28.0,100,72,50,30.39,30.19,9,1,13,0.05
2013-5-20,82.4,45.5,63.9,67.5,52.3,32.0,100,65,50,30.25,29.92,7,1,8,1.20
2013-5-21,77.8,60.2,49.5,69.6,58.6,49.5,100,95,75,30.05,29.88,11,2,14,1.96
2013-5-22,66.0,55.7,49.6,62.7,55.0,49.6,100,98,88,30.15,29.88,6,1,8,2.26
2013-5-23,76.5,62.1,52.5,73.5,61.5,52.5,100,98,86,29.94,29.78,10,1,14,1.75
2013-5-24,73.2,61.3,47.6,69.7,60.2,32.0,100,95,50,29.90,29.63,11,1,14,1.13
2013-5-25,49.8,36.8,40.2,49.8,42.6,32.0,100,92,50,29.87,29.73,10,1,13,0.33
2013-5-26,56.2,47.6,39.0,44.1,40.7,32.0,98,78,50,30.10,29.71,11,2,17,0.04
2013-5-27,70.5,55.3,36.6,49.5,43.6,36.6,100,70,37,30.22,30.04,9,1,15,0.00
2013-5-28,75.7,56.9,39.3,52.2,46.7,32.0,100,70,36,30.28,30.12,10,1,10,0.00
2013-5-29,68.4,47.1,53.3,65.5,53.3,32.0,100,86,50,30.19,29.96,4,0,6,0.31
2013-5-30,87.4,53.9,66.2,72.5,57.2,32.0,100,65,50,30.14,29.98,6,0,7,0.92
2013-5-31,95.1,78.5,59.7,76.0,68.1,59.7,100,74,44,30.11,29.91,8,1,8,0.00
2013-6-1,94.2,79.5,64.1,73.8,69.0,64.1,100,75,40,29.98,29.80,11,1,13,0.02
2013-6-2,91.2,68.3,68.0,75.3,65.8,32.0,100,78,48,29.92,29.65,23,1,26,0.04
2013-6-3,78.9,64.3,53.9,70.9,61.9,32.0,100,87,50,29.98,29.71,11,1,12,0.25
2013-6-4,69.7,59.9,47.3,53.3,49.1,43.3,92,69,50,30.11,29.83,11,1,12,0.00
2013-6-5,75.8,60.8,44.9,55.9,50.2,32.0,100,70,38,30.27,30.08,8,1,10,0.00
2013-6-6,75.6,63.3,50.8,59.6,55.6,50.8,100,78,53,30.20,30.10,10,1,10,0.02
2013-6-7,57.4,54.1,51.5,56.8,54.1,51.5,100,100,96,30.12,29.84,11,1,12,2.45
2013-6-8,78.3,62.5,51.5,66.8,58.5,51.5,100,88,67,29.99,29.65,11,2,176,0.81
2013-6-9,79.1,66.6,51.9,62.8,51.6,32.0,100,49,1,30.17,30.00,9,1,12,0.00
2013-6-10,70.5,61.1,52.0,62.0,57.0,32.0,100,86,1,30.22,30.03,9,1,9,0.30
2013-6-11,60.8,56.9,54.2,59.1,50.0,32.0,100,71,1,30.03,29.58,9,1,13,0.69
2013-6-12,68.7,61.6,55.0,60.0,56.5,54.5,100,85,67,29.83,29.56,15,2,16,0.05
2013-6-13,67.7,55.9,48.3,61.0,54.7,32.0,100,94,50,29.83,29.71,13,0,14,0.44
2013-6-14,73.6,60.7,52.1,63.1,56.1,52.1,100,87,50,29.78,29.66,7,1,10,0.56
2013-6-15,77.6,64.9,49.6,57.7,52.8,47.2,100,70,36,29.96,29.78,10,1,12,1.16
2013-6-16,78.5,65.3,50.6,64.7,58.2,50.6,100,80,49,29.94,29.70,8,1,11,0.00
2013-6-17,85.9,68.6,55.9,67.8,62.4,55.9,100,84,50,29.91,29.77,12,1,12,0.10
2013-6-18,70.5,60.8,55.2,65.7,59.8,42.8,100,97,77,29.96,29.89,9,1,11,0.67
2013-6-19,73.9,63.1,52.3,61.5,55.5,47.4,100,80,42,30.16,29.92,9,1,11,0.00
2013-6-20,80.3,64.4,46.1,62.1,54.9,46.1,100,75,44,30.27,30.15,8,1,9,0.00
2013-6-21,84.8,71.1,54.4,66.9,59.2,36.2,100,71,38,30.25,30.19,9,1,9,0.00
2013-6-22,86.2,70.9,58.8,69.6,63.3,32.0,100,76,50,30.23,30.10,11,1,11,0.00
2013-6-23,91.8,69.1,65.2,77.5,65.0,32.0,90,71,50,30.15,29.96,13,1,13,0.00
2013-6-24,94.2,79.5,69.2,76.6,71.4,32.0,100,78,50,30.01,29.86,8,1,12,1.51
2013-6-25,92.4,77.8,66.3,76.3,70.9,32.0,100,81,50,29.93,29.71,9,1,11,0.73
2013-6-26,82.2,72.6,66.5,75.5,70.9,66.5,100,95,76,29.86,29.72,7,0,10,0.08
2013-6-27,70.7,60.7,60.9,68.4,62.7,32.0,100,96,50,29.90,29.76,6,0,8,0.73
2013-6-28,76.9,48.7,57.4,75.8,56.9,32.0,100,84,50,29.78,29.47,9,0,12,0.65
2013-6-29,84.7,75.2,69.0,74.6,71.1,69.0,100,88,66,29.71,29.50,12,2,16,0.00
2013-6-30,88.4,76.8,65.2,76.6,71.6,65.2,100,86,63,29.94,29.70,9,1,13,0.00
2013-7-1,79.8,73.1,70.6,76.3,72.3,70.6,100,98,85,30.08,29.93,6,0,8,1.22
2013-7-2,84.0,71.1,60.1,78.5,70.1,60.1,100,97,78,30.23,30.06,9,1,10,0.02
2013-7-3,88.6,75.1,60.1,78.1,71.0,60.1,100,88,68,30.23,30.12,9,1,11,0.00
2013-7-4,94.2,82.3,70.8,79.8,75.6,70.6,100,82,58,30.21,30.08,8,1,10,0.00
2013-7-5,95.6,83.8,73.0,79.6,76.3,73.0,100,80,58,30.16,30.03,11,1,12,0.00
2013-7-6,90.9,79.3,69.1,77.3,72.0,2.2,100,78,50,30.14,29.98,9,0,12,0.00
2013-7-7,92.0,42.6,68.5,82.3,54.7,32.0,99,69,50,30.12,29.90,4,0,5,0.03
2013-7-8,87.6,74.9,66.0,76.8,72.2,65.9,100,92,66,30.09,29.91,12,1,13,0.17
2013-7-9,72.9,52.1,64.6,69.8,58.7,32.0,100,87,50,30.20,30.06,5,0,5,0.91
2013-7-10,84.0,48.2,65.5,79.2,58.6,-39.1,100,82,50,30.11,29.79,8,0,10,0.19
2013-7-11,84.8,42.7,-32.9,77.2,53.4,-44.8,100,71,50,29.94,29.77,6,0,8,0.55
2013-7-12,78.3,70.9,64.1,67.2,62.7,58.9,100,77,53,30.23,29.95,10,2,12,0.00
2013-7-13,79.1,70.9,63.8,73.7,67.3,61.4,100,89,77,30.33,30.21,7,0,8,0.00
2013-7-14,90.7,78.7,68.3,77.1,73.2,68.3,100,85,60,30.31,30.20,3,0,3,0.01
2013-7-15,89.7,79.6,68.0,78.2,73.3,68.0,100,83,58,30.22,30.09,0,0,0,0.00
2013-7-16,91.1,79.1,65.4,75.2,71.3,65.4,100,79,50,30.18,30.11,11,0,13,0.00
2013-7-17,95.6,82.3,68.2,77.1,73.7,68.0,100,78,51,30.20,29.97,5,1,9,0.57
2013-7-18,94.7,81.8,72.7,78.7,74.6,71.0,100,80,56,30.02,29.94,9,0,12,0.00
2013-7-19,98.2,84.5,70.8,79.9,76.3,70.8,100,79,53,29.96,29.70,14,2,17,0.00
2013-7-20,93.3,81.5,70.0,78.3,72.9,65.9,92,76,60,29.82,29.66,7,1,9,0.00
2013-7-21,83.2,73.3,62.6,70.8,67.1,62.6,100,83,57,30.00,29.81,9,1,9,0.00
2013-7-22,82.8,71.4,64.6,72.7,68.4,64.6,100,91,68,30.04,29.89,10,1,12,0.00
2013-7-23,77.9,70.5,67.0,75.9,70.3,67.0,100,99,91,29.90,29.54,4,0,6,1.23
2013-7-24,86.4,74.7,62.2,75.0,68.1,54.3,100,82,60,29.99,29.58,9,1,12,0.01
2013-7-25,63.6,60.2,57.2,60.2,55.2,49.7,100,84,71,30.13,29.99,10,1,10,0.05
2013-7-26,73.4,64.6,59.4,71.6,64.1,59.3,100,98,86,30.09,29.94,9,1,12,0.36
2013-7-27,85.5,71.6,56.9,70.6,65.0,56.9,100,82,54,30.06,29.98,8,1,9,0.00
2013-7-28,83.7,70.2,62.0,73.8,67.6,62.0,100,92,71,30.03,29.97,10,1,12,0.08
2013-7-29,85.3,72.7,65.8,74.7,69.9,65.8,100,92,67,30.05,29.94,14,1,14,0.01
2013-7-30,82.0,70.8,58.6,68.0,63.3,58.5,100,80,52,30.13,30.03,9,1,12,0.00
2013-7-31,82.2,70.2,57.0,68.9,63.7,56.9,100,82,56,30.15,30.04,3,0,3,1.05
2013-8-1,81.3,68.9,57.3,72.4,65.4,57.3,100,90,64,30.07,29.88,10,1,17,0.05
2013-8-2,84.7,71.4,63.7,72.1,65.9,61.6,100,85,55,29.88,29.79,9,1,11,0.65
2013-8-3,80.1,69.1,59.2,69.2,64.2,59.2,100,86,62,29.87,29.76,8,1,10,0.00
2013-8-4,80.2,66.4,54.0,64.9,59.6,54.0,100,81,54,29.91,29.77,8,0,9,0.00
2013-8-5,74.4,63.0,50.0,57.9,51.5,45.1,100,70,38,30.06,29.89,12,1,14,0.44
2013-8-6,80.3,64.0,46.6,59.9,54.4,46.6,100,75,46,30.16,30.06,6,1,9,0.00
2013-8-7,81.6,67.0,51.4,64.8,58.2,51.4,100,76,46,30.20,30.10,9,1,12,0.00
2013-8-8,82.4,72.9,63.6,74.3,69.0,60.2,100,88,74,30.12,30.00,8,2,14,0.01
2013-8-9,74.2,71.8,68.8,74.2,71.6,68.8,100,99,96,30.03,29.74,7,1,11,1.14
2013-8-10,82.6,72.0,59.2,69.9,64.4,58.5,100,80,48,30.03,29.79,10,1,15,0.01
2013-8-11,79.4,66.1,50.6,65.0,58.5,34.6,100,80,50,30.09,29.99,0,0,2,0.00
2013-8-12,83.0,68.5,55.6,66.2,61.5,55.6,100,81,51,30.04,29.92,0,0,0,0.00
2013-8-13,74.2,67.2,61.9,71.7,66.6,61.9,100,98,88,29.93,29.67,6,0,7,0.05
2013-8-14,74.4,65.8,55.2,63.9,58.4,43.5,100,79,50,29.98,29.66,7,1,15,0.37
2013-8-15,77.1,63.8,48.0,62.4,55.8,48.0,100,78,50,30.13,29.97,7,1,10,1.35
2013-8-16,79.8,65.8,49.9,64.2,58.6,49.9,100,80,51,30.21,30.11,7,1,8,0.48
2013-8-17,80.9,66.2,50.3,66.9,58.7,32.4,100,79,50,30.29,30.20,2,0,3,0.00
2013-8-18,82.0,68.1,54.0,70.8,63.3,36.0,100,86,50,30.29,30.08,1,0,3,0.00
2013-8-19,82.2,69.9,55.6,69.7,64.3,55.6,100,84,60,30.09,29.95,6,1,9,0.00
2013-8-20,86.6,72.1,57.4,70.9,65.6,57.4,100,83,53,30.11,29.99,5,0,6,0.37
2013-8-21,89.5,73.5,57.9,73.5,66.5,57.8,100,82,52,30.16,30.02,7,0,8,0.00
2013-8-22,89.4,75.7,60.8,74.8,69.3,60.8,100,83,54,30.05,29.82,12,1,16,0.00
2013-8-23,78.5,71.5,61.1,70.8,61.4,54.2,100,73,48,30.15,29.82,12,2,13,0.00
2013-8-24,78.0,63.5,49.3,61.0,55.0,49.3,100,78,42,30.35,30.15,11,1,11,0.00
2013-8-25,83.4,66.2,47.4,65.0,57.3,47.4,100,77,40,30.39,30.18,9,1,10,0.00
2013-8-26,82.4,70.7,61.5,72.5,67.2,60.3,100,89,69,30.19,29.87,7,0,10,0.07
2013-8-27,84.6,74.0,66.2,73.6,69.5,66.2,100,87,59,29.92,29.83,15,1,15,0.00
2013-8-28,87.0,73.3,60.6,73.9,67.5,44.2,100,84,50,30.00,29.85,8,0,9,0.00
2013-8-29,67.5,64.3,61.1,67.2,64.2,61.1,100,99,97,30.10,29.96,10,1,12,0.05
2013-8-30,84.6,70.2,55.9,73.1,65.5,39.1,100,87,50,30.04,29.81,8,1,11,0.00
2013-8-31,81.8,72.9,66.5,78.9,72.5,66.5,100,99,88,29.84,29.77,9,0,9,0.42
2013-9-1,85.7,75.3,69.5,78.4,73.7,69.5,100,95,77,29.89,29.78,9,1,11,0.13
2013-9-2,80.0,74.4,71.5,79.0,74.2,71.5,100,99,93,29.88,29.70,7,0,7,0.04
2013-9-3,81.8,71.5,58.6,75.5,68.8,46.1,100,92,50,29.82,29.69,5,0,6,0.01
2013-9-4,81.7,66.8,53.9,66.8,60.3,53.9,100,82,53,29.92,29.80,0,0,0,0.01
2013-9-5,69.0,61.1,47.6,63.5,56.0,47.6,100,85,55,30.17,29.85,9,1,12,0.00
2013-9-6,70.1,55.1,39.9,52.2,46.7,39.9,100,77,44,30.27,30.09,0,0,1,0.00
2013-9-7,81.8,63.4,46.0,64.6,54.6,45.3,100,77,43,30.10,29.88,7,0,8,0.01
2013-9-8,73.2,62.9,47.3,66.3,51.7,32.0,100,66,1,30.11,29.75,14,2,20,0.01
2013-9-9,71.7,56.0,38.4,52.2,46.7,38.1,100,74,44,30.25,30.10,10,1,11,0.00
2013-9-10,75.7,65.0,52.6,73.2,63.9,50.2,100,96,89,30.16,30.02,10,0,12,0.15
2013-9-11,95.9,80.6,66.3,80.7,74.0,66.3,100,83,56,30.07,29.93,12,1,12,0.02
2013-9-12,86.2,73.5,65.8,78.5,70.9,65.8,100,92,75,29.95,29.66,11,1,13,0.90
2013-9-13,78.1,67.1,58.6,72.2,64.8,55.6,100,93,75,29.78,29.57,10,1,12,1.01
2013-9-14,66.5,59.2,49.6,57.8,54.9,49.6,100,87,70,30.07,29.77,9,1,11,0.00
2013-9-15,71.9,57.4,43.3,57.9,51.7,43.3,100,84,51,30.17,30.05,8,1,9,0.01
2013-9-16,66.4,56.0,45.7,61.9,52.1,38.9,100,88,69,30.28,30.00,10,1,13,2.24
2013-9-17,62.2,48.5,35.0,49.2,41.3,34.2,100,79,52,30.45,30.28,10,1,12,0.00
2013-9-18,75.1,53.3,36.6,54.6,46.2,36.6,100,81,40,30.35,30.14,7,0,8,0.99
2013-9-19,78.1,58.7,41.5,60.2,51.1,41.4,100,80,45,30.15,30.03,0,0,0,0.00
2013-9-20,79.6,66.2,44.5,64.7,55.3,32.0,100,61,1,30.10,30.00,2,0,4,0.00
2013-9-21,75.6,62.7,47.4,67.4,59.3,47.4,100,90,69,30.04,29.72,15,2,17,0.01
2013-9-22,70.8,63.7,52.6,68.9,59.8,47.3,100,88,60,29.85,29.59,10,1,15,0.53
2013-9-23,60.8,51.1,41.7,52.1,46.0,41.7,100,84,66,30.03,29.85,16,1,18,0.00
2013-9-24,65.9,51.1,36.0,48.5,43.7,36.0,100,79,49,30.01,29.82,9,1,14,0.00
2013-9-25,67.7,53.6,39.4,55.3,48.5,39.4,100,85,63,30.01,29.87,8,0,10,0.25
2013-9-26,65.9,57.1,52.1,55.2,51.8,47.8,100,84,61,30.16,29.87,8,1,9,0.00
2013-9-27,65.4,57.4,47.6,58.4,53.7,47.6,100,88,72,30.29,30.14,6,1,9,0.00
2013-9-28,72.2,55.6,41.8,61.8,51.6,41.8,100,88,62,30.36,30.27,9,0,12,0.00
2013-9-29,67.9,52.9,41.9,58.0,48.7,41.9,100,88,53,30.29,30.13,7,1,8,0.01
2013-9-30,69.3,53.4,42.7,57.8,49.6,42.7,100,89,59,30.15,29.98,8,0,8,0.26
2013-10-1,76.2,57.3,40.3,61.7,52.4,40.3,100,86,53,29.99,29.85,10,0,18,0.01
2013-10-2,80.2,63.2,47.1,65.8,58.0,37.5,100,86,50,29.96,29.82,2,0,2,0.11
2013-10-3,77.4,61.1,46.4,63.7,54.6,36.9,100,83,44,30.10,29.96,0,0,2,0.01
2013-10-4,61.2,55.2,48.3,61.1,55.1,40.6,100,100,50,30.11,30.04,2,0,3,0.35
2013-10-5,69.6,60.6,54.2,63.5,58.5,54.2,100,93,80,30.14,30.05,5,0,6,0.01
2013-10-6,59.5,53.8,50.8,59.5,51.0,32.0,100,92,1,30.27,30.13,8,1,11,0.32
2013-10-7,76.4,62.5,54.2,73.7,58.5,36.0,100,89,50,30.16,29.78,17,1,24,0.21
2013-10-8,64.3,53.3,40.6,57.6,49.0,40.6,100,87,55,30.40,29.91,11,1,15,0.00
2013-10-9,62.1,47.5,36.2,51.0,43.3,36.2,100,87,60,30.51,30.39,8,1,10,1.19
2013-10-10,61.6,48.7,36.9,53.7,46.6,36.9,100,93,71,30.39,30.20,6,0,8,0.00
2013-10-11,70.3,54.5,43.0,53.1,47.5,37.2,100,82,31,30.21,30.11,9,1,9,0.00
2013-10-12,55.6,51.0,44.6,55.6,51.0,44.6,100,100,99,30.43,30.17,10,1,16,0.01
2013-10-13,59.7,49.0,38.3,54.2,47.2,38.3,100,94,77,30.48,30.40,10,1,10,0.00
2013-10-14,65.7,49.2,35.5,52.3,44.2,35.5,100,85,53,30.43,30.25,7,1,7,0.01
2013-10-15,64.5,55.8,49.5,57.1,53.1,48.1,100,91,73,30.29,30.19,7,1,8,0.00
2013-10-16,60.3,53.9,48.6,55.0,52.1,48.6,100,94,75,30.20,29.92,6,0,7,0.00
2013-10-17,74.9,57.4,44.7,66.0,53.3,44.7,100,89,50,29.93,29.71,9,1,12,0.00
2013-10-18,67.5,58.5,41.9,62.1,49.9,37.4,100,76,50,29.92,29.59,11,1,13,0.04
2013-10-19,68.0,52.8,36.3,51.2,44.9,36.3,100,77,48,29.98,29.74,8,1,11,0.00
2013-10-20,61.0,50.9,37.2,50.5,43.0,35.5,100,77,48,30.03,29.68,13,1,13,0.01
2013-10-21,67.5,48.8,31.9,48.0,41.0,31.1,100,78,47,30.13,29.99,8,1,11,0.00
2013-10-22,63.8,49.1,38.6,55.2,44.7,32.0,100,86,1,30.25,29.71,10,1,13,0.08
2013-10-23,52.6,42.7,31.1,41.2,37.1,30.6,100,82,58,29.82,29.59,3,0,5,0.60
2013-10-24,53.2,43.5,30.9,38.9,33.2,29.6,98,69,45,29.89,29.65,9,1,17,1.25
2013-10-25,47.7,39.0,28.2,37.6,30.4,24.8,98,73,50,30.17,29.89,8,1,11,0.00
2013-10-26,54.2,41.4,25.8,37.7,30.7,24.2,98,69,41,30.17,29.87,21,2,25,0.00
2013-10-27,53.9,46.5,34.6,39.5,35.1,30.0,84,65,48,30.07,29.80,9,2,17,1.28
2013-10-28,57.3,41.9,28.7,40.1,32.6,25.2,98,72,47,30.38,30.06,13,2,17,0.00
2013-10-29,47.7,32.7,22.7,30.4,23.2,20.4,94,71,38,30.48,30.36,7,0,8,0.00
2013-10-30,52.1,36.1,26.4,41.9,31.4,21.5,98,84,66,30.39,30.20,7,0,8,0.01
2013-10-31,58.9,42.8,27.6,58.9,42.4,27.1,100,99,91,30.26,29.78,13,1,15,1.41
2013-11-1,67.9,62.3,50.4,65.4,58.9,50.1,100,89,72,29.78,29.41,26,5,27,0.20
2013-11-2,66.5,52.0,37.9,50.6,46.1,37.9,100,83,48,29.75,29.59,8,0,10,0.03
2013-11-3,46.9,39.3,28.5,46.8,27.1,14.7,100,63,36,30.45,29.74,12,2,14,0.01
2013-11-4,41.2,30.1,21.2,21.6,18.4,16.4,86,64,38,30.74,30.44,9,1,13,0.00
2013-11-5,50.1,35.3,21.8,34.1,27.4,17.7,90,75,52,30.74,30.52,9,1,10,0.00
2013-11-6,61.0,49.0,35.0,49.8,42.3,31.8,95,79,59,30.52,30.03,15,2,19,0.21
2013-11-7,63.4,53.0,39.6,58.2,49.5,29.2,100,88,63,30.04,29.68,13,2,17,0.07
2013-11-8,46.9,38.1,27.2,34.8,27.6,22.4,90,66,53,30.10,29.82,11,2,15,0.00
2013-11-9,43.5,37.2,26.1,30.4,25.9,21.8,85,64,47,30.23,30.03,9,1,9,0.00
2013-11-10,54.6,43.6,36.7,46.4,36.7,29.6,100,77,62,30.03,29.73,12,1,13,0.05
2013-11-11,52.1,44.4,37.9,33.7,30.6,27.2,72,59,42,30.11,29.85,12,2,16,0.00
2013-11-12,47.2,34.2,25.7,38.8,24.7,16.3,95,68,54,30.21,29.87,13,2,17,0.03
2013-11-13,34.9,26.6,20.6,18.4,15.2,12.4,80,63,42,30.32,30.15,12,2,14,0.00
2013-11-14,51.2,36.3,25.3,30.0,23.1,16.5,84,60,38,30.16,30.02,11,2,13,0.00
2013-11-15,60.8,39.2,24.3,30.4,24.6,20.7,88,61,25,30.21,30.09,14,1,15,0.36
2013-11-16,59.6,40.6,29.3,35.9,30.1,24.3,89,68,37,30.34,30.18,5,0,6,0.00
2013-11-17,45.9,38.3,27.3,44.6,36.4,25.0,100,93,86,30.35,29.85,5,0,5,0.04
2013-11-18,64.5,53.4,43.0,60.2,46.8,32.9,100,80,50,29.86,29.52,19,2,21,0.14
2013-11-19,47.4,38.0,29.9,33.6,23.7,17.4,65,56,46,30.30,29.67,16,4,18,0.54
2013-11-20,39.6,30.4,19.9,18.5,16.1,14.3,79,56,36,30.66,30.29,14,2,16,0.00
2013-11-21,47.7,30.7,15.1,27.0,20.7,12.3,92,69,32,30.67,30.36,8,1,11,0.00
2013-11-22,42.3,39.3,32.6,42.3,38.0,26.3,100,95,77,30.39,29.81,3,0,4,0.20
2013-11-23,44.0,37.1,28.4,42.5,27.6,9.7,100,70,43,29.94,29.79,15,2,21,0.00
2013-11-24,28.6,23.1,18.5,12.1,4.0,-3.1,62,44,29,30.21,29.79,23,5,28,0.00
2013-11-25,33.2,23.5,12.0,16.2,3.7,-5.3,59,43,24,30.38,30.20,11,2,15,0.74
2013-11-26,36.9,32.6,27.8,32.5,24.3,15.5,99,72,52,30.35,30.07,10,1,34,0.15
2013-11-27,60.0,46.2,32.5,60.0,45.9,32.2,100,99,84,30.07,29.23,14,2,20,2.45
2013-11-28,37.0,29.1,18.8,32.8,16.8,7.2,86,61,38,30.45,29.45,19,4,25,0.00
2013-11-29,31.4,23.4,14.7,18.0,10.2,-0.5,86,59,29,30.78,30.44,14,2,15,0.00
2013-11-30,32.1,21.8,9.1,21.1,13.1,5.3,87,70,51,30.84,30.45,9,1,11,0.00
2013-12-1,34.5,31.8,28.8,34.5,29.2,20.8,100,90,71,30.45,30.04,6,0,7,0.20
2013-12-2,38.4,35.7,34.2,38.3,35.7,34.2,100,100,99,30.05,29.92,4,0,6,0.00
2013-12-3,47.9,36.5,27.5,38.8,33.5,26.3,100,90,61,29.97,29.85,8,1,10,0.00
2013-12-4,41.9,31.5,23.6,30.8,26.7,22.4,98,84,59,30.22,29.96,7,1,10,0.68
2013-12-5,38.4,34.4,26.1,38.3,33.5,24.9,100,96,88,30.23,29.91,5,0,7,0.09
2013-12-6,47.2,41.7,32.4,46.3,38.5,28.4,100,89,52,30.19,29.85,8,1,11,0.15
2013-12-7,38.1,31.2,21.7,35.9,27.1,19.3,100,85,60,30.47,30.10,11,1,16,0.16
2013-12-8,29.6,24.7,17.7,22.2,18.5,15.1,94,78,62,30.62,30.47,5,0,6,0.00
2013-12-9,33.6,29.3,23.6,33.6,27.7,16.5,100,94,64,30.52,29.88,7,0,7,0.40
2013-12-10,33.1,28.6,20.8,33.1,27.1,14.2,100,94,68,30.00,29.79,6,0,8,0.00
2013-12-11,30.8,22.8,15.3,20.2,16.8,13.1,94,78,58,30.20,30.00,12,2,16,0.00
2013-12-12,23.4,17.0,9.2,18.1,5.5,-1.4,95,63,34,30.28,30.05,12,1,15,0.00
2013-12-13,28.3,18.5,9.7,19.5,10.1,-0.5,84,70,58,30.43,29.98,12,2,15,0.00
2013-12-14,14.7,9.4,6.8,3.4,-3.3,-6.8,60,56,49,30.65,30.42,9,2,12,0.00
2013-12-15,28.0,19.8,14.5,26.2,17.9,12.1,95,92,90,30.22,29.47,7,2,17,0.00
2013-12-16,26.0,19.8,9.1,17.9,10.8,2.2,93,69,45,30.27,29.74,13,2,18,0.00
2013-12-17,14.5,8.4,-4.5,12.3,3.5,-9.6,91,80,62,30.31,29.98,10,2,12,0.00
2013-12-18,33.5,24.1,14.1,21.9,18.1,10.5,87,78,59,30.08,29.90,9,2,14,0.01
2013-12-19,40.6,29.9,24.0,26.7,23.2,18.9,90,77,56,30.13,29.95,17,2,19,0.10
2013-12-20,51.4,35.4,26.7,36.7,30.0,23.4,92,82,55,30.14,29.90,11,1,14,0.35
2013-12-21,56.6,41.6,31.4,46.8,37.4,29.5,96,86,66,29.96,29.85,7,1,9,0.02
2013-12-22,47.0,35.6,31.9,47.0,35.4,31.9,100,99,93,30.05,29.81,10,1,12,0.04
2013-12-23,35.6,32.5,30.7,35.6,32.5,30.7,100,100,100,30.12,29.97,5,1,6,0.50
2013-12-24,35.1,30.6,23.8,35.1,20.8,11.9,100,67,53,30.22,30.06,10,2,12,0.00
2013-12-25,24.5,17.2,11.6,13.1,4.3,-1.3,73,57,44,30.56,30.20,15,2,16,0.00
2013-12-26,25.5,19.7,14.1,23.0,15.0,7.0,93,82,71,30.52,30.10,5,0,6,0.00
2013-12-27,33.1,23.5,13.2,22.9,18.2,10.8,94,81,61,30.28,30.15,9,1,12,0.04
2013-12-28,45.7,28.8,15.1,31.7,23.3,12.7,94,81,56,30.23,29.99,12,1,16,0.00
2013-12-29,39.6,32.4,24.3,36.2,30.4,22.7,100,93,74,30.05,29.47,10,1,13,1.20
2013-12-30,39.8,30.3,14.6,38.9,23.0,5.0,100,76,48,30.20,29.53,15,2,17,0.15
2013-12-31,23.9,15.5,8.9,11.2,4.1,-4.4,86,61,47,30.20,30.02,9,1,22,0.00
2014-1-1,25.4,16.9,8.3,11.5,7.7,3.8,84,68,46,30.41,30.18,20,1,20,0.00
2014-1-2,17.1,9.3,0.6,13.4,4.9,-4.6,89,82,74,30.39,29.90,17,4,21,0.23